Miscellaneous Local Product
Issued by NWS Hastings, NE

Home | Current Version | Previous Version | Graphics & Text | Print | Product List | Glossary On
Versions: 1 2 3 4 5 6 7 8 9 10 11 12 13 14 15 16 17 18 19 20 21 22 23 24 25 26 27 28 29 30 31 32 33 34 35 36 37 38 39 40 41 42 43 44 45 46 47 48 49 50
000
AXUS43 KGID 241902
MISGRI

GID CWA HOURLY WEATHER ROUNDUP
NATIONAL WEATHER SERVICE HASTINGS NE
100 PM CST SAT JAN 24 2015

NOTE: "FAIR" INDICATES FEW OR NO CLOUDS BELOW 12,000 FEET WITH NO
SIGNIFICANT WEATHER AND/OR OBSTRUCTIONS TO VISIBILITY.

...SOUTH CENTRAL NEBRASKA...

CITY           SKY/WX    TMP DP  RH WIND       PRES   REMARKS
GRAND ISLAND   CLOUDY    50  28  42 W17       29.80F
HASTINGS       CLOUDY    49  25  39 W16       29.81F
KEARNEY        CLOUDY    50  27  40 W17G23    29.82F
ORD            PTSUNNY   49  27  42 W10       29.77F
YORK           CLOUDY    48  30  49 W14       29.81F
AURORA         CLOUDY    49  28  42 W16G23    29.79F
LEXINGTON      PTSUNNY   54  25  32 W17       29.84F
HOLDREGE       CLOUDY    47  26  42 W14G22    29.86F
HEBRON         CLOUDY    53  27  36 W13       29.85F

...NEBRASKA PANHANDLE...

CITY           SKY/WX    TMP DP  RH WIND       PRES   REMARKS
CHADRON        PTSUNNY   44  30  57 W12       29.89F
ALLIANCE       CLOUDY    40  28  62 W20       29.89F WCI  30
SCOTTSBLUFF    CLOUDY    43  26  51 W17G30    29.94F
SIDNEY         CLOUDY    49  21  33 NW23G29   29.94F

...WESTERN AND NORTH CENTRAL NEBRASKA...

CITY           SKY/WX    TMP DP  RH WIND       PRES   REMARKS
VALENTINE      LGT RAIN  46  29  51 W17       29.78F
AINSWORTH      CLOUDY    46  28  49 W15G21    29.77F
ONEILL         CLOUDY    51  31  47 W13       29.74F
BROKEN BOW     PTSUNNY   51  28  41 W12       29.80F
IMPERIAL       CLOUDY    52  21  29 W16G25    29.91F
NORTH PLATTE   PTSUNNY   50  25  37 W15       29.86F
MCCOOK         CLOUDY    50  26  39 W14G21    29.90F

...EASTERN NEBRASKA...

CITY           SKY/WX    TMP DP  RH WIND       PRES   REMARKS
NORFOLK        CLOUDY    50  30  46 W15       29.71F
SO SIOUX CITY  CLOUDY    49  32  52 W12       29.71F
TEKAMAH        CLOUDY    49  34  56 SW14      29.74F
COLUMBUS       CLOUDY    45  30  57 W12       29.78F
ALBION         CLOUDY    51  28  41 W10       29.76F
OMAHA EPPLEY   PTSUNNY   50  31  48 SW8       29.76F
OFFUTT AFB     PTSUNNY   49  31  49 SW9       29.76F
MILLARD        PTSUNNY   50  32  50 W6        29.78F
LINCOLN        CLOUDY    51  30  44 W10       29.79F
NEBRASKA CITY  PTSUNNY   51  25  35 W13       29.81F
BEATRICE       CLOUDY    49  30  48 W9        29.83F
FALLS CITY     SUNNY     57  29  34 W17       29.81F

...NORTHERN KANSAS...

CITY           SKY/WX    TMP DP  RH WIND       PRES   REMARKS
GOODLAND       MOSUNNY   57  21  24 W13       29.96F
HILL CITY      CLOUDY    58  25  28 W15       29.91F
NORTON         PTCLDY    52  21  30 W14       29.88
PHILLIPSBURG   SUNNY     55  27  33 W16       29.89F
SMITH CENTER   SUNNY     52  25  35 W20       29.89F
BELOIT         SUNNY     52  27  37 W13G20    29.88F
HAYS           PTSUNNY   55  27  33 W15G25    29.94F
RUSSELL        MOSUNNY   56  27  32 W17       29.91F
CONCORDIA      CLOUDY    51  29  42 W15       29.86F
SALINA         SUNNY     59  28  30 W12       29.91F
TOPEKA         SUNNY     58  31  35 W9        29.87F



USA.gov is the U.S. government's official web portal to all federal, state and local government web resources and services.